Location: Boulder
(39.9271°N, 105.3706°W)
Time: 10:30:38
(UTC-07:00)

ISS - Visible Passes

Search period start: 12 December 2018 00:00
Search period end: 22 December 2018 00:00
Orbit: 401 x 408 km, 51.6° (Epoch: 12 December)

Date Brightness Start Highest point End Pass type
(mag) Time Alt. Az. Time Alt. Az. Time Alt. Az.
12 Dec -3.5 17:06:22 10° NW 17:09:31 45° NNE 17:12:38 10° ESE visible
12 Dec -1.1 18:43:27 10° W 18:45:45 18° SW 18:47:22 13° SSW visible
13 Dec -2.2 17:50:44 10° WNW 17:53:45 35° SW 17:56:43 10° SSE visible
15 Dec -0.6 17:43:44 10° W 17:45:35 14° SW 17:47:25 10° SSW visible
